Weather History for Red Bluff, CA

Change the Weather History Date:

Friday, November 15, 2013

  Actual Average Record
Temperature  
Mean Temperature 60 °F -  
Max Temperature 68 °F 60 °F 82 °F (2008)
Min Temperature 51 °F 43 °F 27 °F (1978)
Degree Days  
Heating Degree Days 6    
Growing Degree Days 10 (Base 50)    
Moisture  
Dew Point 27 °F    
Average Humidity 29    
Maximum Humidity 41    
Minimum Humidity 11    
Precipitation  
Precipitation 0.00 in - - ()
Sea Level Pressure  
Sea Level Pressure 29.80 in    
Wind  
Wind Speed 14 mph (NNW)    
Max Wind Speed 20 mph    
Max Gust Speed 29 mph    
Visibility 10 miles    
Events      
Averages and records for this station are not official NWS values.
T = Trace of Precipitation, MM = Missing Value Source: NWS Daily Summary

Daily Weather History Graph

Daily Weather History Graph

Search for Another Location

Airport:

Trip Planner

Search our weather history database for the weather conditions in past years. The results will help you decide how hot, cold, wet, or windy it might be!

Date:

Astronomy

Nov. 15, 2013 Rise Set
Actual Time 6:54 AM PST 4:52 PM PST
Civil Twilight 6:25 AM PST 5:21 PM PST
Nautical Twilight 5:52 AM PST 5:53 PM PST
Astronomical Twilight 5:20 AM PST 6:26 PM PST
Moon 3:52 PM PST (11/15) 4:56 AM PST (11/15)
Length of Visible Light 10h 55m
Length of Day
9h 57m
Waxing Gibbous, 97% of the Moon is Illuminated
Nov 15
Waxing Gibbous
Nov 17
Full
Nov 25
Last Quarter
Dec 2
New
Dec 9
First Quarter

Hourly Weather History & Observations

Time (PST) Temp. Dew Point Humidity Pressure Visibility Wind Dir Wind Speed Gust Speed Precip Events Conditions
12:54 AM 57.9 °F 33.1 °F 39% 29.85 in 10.0 mi NNW 17.3 mph 24.2 mph N/A   Clear
1:54 AM 57.0 °F 32.0 °F 39% 29.86 in 10.0 mi NNW 12.7 mph 23.0 mph N/A   Clear
2:54 AM 57.0 °F 30.9 °F 37% 29.85 in 10.0 mi NNW 15.0 mph 25.3 mph N/A   Clear
3:54 AM 55.9 °F 28.9 °F 36% 29.84 in 10.0 mi North 15.0 mph 21.9 mph N/A   Clear
4:54 AM 55.0 °F 28.9 °F 37% 29.85 in 10.0 mi NNW 12.7 mph - N/A   Clear
5:54 AM 55.0 °F 28.9 °F 37% 29.86 in 10.0 mi NNW 16.1 mph 23.0 mph N/A   Clear
6:54 AM 54.0 °F 28.0 °F 37% 29.86 in 10.0 mi North 13.8 mph 25.3 mph N/A   Clear
7:54 AM 55.0 °F 28.0 °F 35% 29.88 in 10.0 mi North 19.6 mph 25.3 mph N/A   Clear
8:54 AM 57.9 °F 28.0 °F 32% 29.89 in 10.0 mi North 19.6 mph 28.8 mph N/A   Clear
9:54 AM 60.1 °F 26.1 °F 27% 29.87 in 10.0 mi North 19.6 mph 28.8 mph N/A   Clear
10:54 AM 63.0 °F 26.1 °F 25% 29.86 in 10.0 mi North 19.6 mph 26.5 mph N/A   Clear
11:54 AM 64.0 °F 24.1 °F 22% 29.83 in 10.0 mi NNW 18.4 mph 25.3 mph N/A   Clear
12:54 PM 66.0 °F 25.0 °F 21% 29.78 in 10.0 mi NNW 13.8 mph - N/A   Clear
1:54 PM 66.9 °F 24.1 °F 20% 29.76 in 10.0 mi NNW 13.8 mph - N/A   Clear
2:54 PM 66.9 °F 24.1 °F 20% 29.75 in 10.0 mi North 13.8 mph - N/A   Clear
3:54 PM 66.0 °F 25.0 °F 21% 29.73 in 10.0 mi North 8.1 mph - N/A   Clear
4:54 PM 60.1 °F 25.0 °F 26% 29.71 in 10.0 mi North 6.9 mph - N/A   Clear
5:54 PM 57.9 °F 25.0 °F 28% 29.72 in 10.0 mi North 6.9 mph - N/A   Clear
6:54 PM 57.0 °F 26.1 °F 30% 29.72 in 10.0 mi NW 6.9 mph - N/A   Clear
7:54 PM 55.0 °F 26.1 °F 33% 29.73 in 10.0 mi NW 8.1 mph - N/A   Clear
8:54 PM 54.0 °F 28.0 °F 37% 29.73 in 10.0 mi NW 8.1 mph - N/A   Clear
9:54 PM 55.0 °F 28.0 °F 35% 29.72 in 10.0 mi NW 6.9 mph - N/A   Clear
10:54 PM 51.1 °F 28.0 °F 41% 29.75 in 10.0 mi North 3.5 mph - N/A   Clear
11:54 PM 53.1 °F 27.0 °F 37% 29.73 in 10.0 mi Calm Calm - N/A   Clear